QPF
0.00 0.00 0.00 0.00 0.00 0.00 0.00 0.00 0.00 0.00 0.00 0.00 0.00 0.00 0.00 0.00 0.00 0.00 0.00 0.00 0.00 0.00 0.00 0.00 0.00 0.00 0.00 0.00 0.00 0.00 0.00 0.00 0.00 0.01 0.03 0.04 0.03 0.02 0.01 0.01 0.02 0.05 0.07 0.08 0.05 0.06 0.03 0.01 0.01 0.01 0.02 0.00 0.00 0.00
0.00 0.00 0.00 0.00 0.00 0.00 0.00 0.00 0.00 0.00 0.00 0.00 0.00 0.00 0.00 0.00 0.00 0.00 0.00 0.00 0.00 0.00 0.00 0.00 0.00 0.00 0.00 0.00 0.00 0.00 0.00 0.01 0.01 0.01 0.03 0.02 0.02 0.03 0.02 0.03 0.01 0.04 0.04 0.05 0.06 0.03 0.05 0.01 0.00 0.00 0.00 0.00 0.00 0.00
0.00 0.00 0.00 0.00 0.00 0.00 0.00 0.00 0.00 0.00 0.00 0.00 0.00 0.00 0.00 0.00 0.00 0.00 0.00 0.00 0.00 0.00 0.00 0.00 0.00 0.00 0.00 0.00 0.00 0.00 0.00 0.01 0.01 0.01 0.01 0.03 0.03 0.01 0.02 0.03 0.02 0.02 0.00 0.00 0.03 0.03 0.07 0.04 0.00 0.00 0.00 0.00 0.00 0.00
0.00 0.00 0.00 0.00 0.00 0.00 0.00 0.00 0.00 0.00 0.00 0.00 0.00 0.00 0.00 0.00 0.00 0.00 0.00 0.00 0.00 0.00 0.00 0.00 0.00 0.00 0.00 0.00 0.00 0.00 0.00 0.00 0.00 0.01 0.02 0.05 0.03 0.02 0.02 0.02 0.01 0.01 0.00 0.01 0.01 0.03 0.01 0.01 0.00 0.00 0.00 0.00 0.00 0.00
0.00 0.00 0.00 0.00 0.00 0.00 0.00 0.00 0.00 0.00 0.00 0.00 0.00 0.00 0.00 0.00 0.00 0.00 0.00 0.00 0.00 0.00 0.01 0.00 0.00 0.00 0.00 0.00 0.00 0.00 0.00 0.00 0.00 0.03 0.03 0.03 0.02 0.01 0.01 0.04 0.01 0.00 0.01 0.01 0.01 0.01 0.01 0.00 0.01 0.00 0.00 0.00 0.00 0.00
0.00 0.00 0.00 0.00 0.00 0.00 0.00 0.00 0.00 0.00 0.00 0.00 0.00 0.00 0.00 0.00 0.00 0.00 0.00 0.00 0.00 0.00 0.00 0.01 0.00 0.00 0.00 0.00 0.00 0.00 0.00 0.00 0.00 0.01 0.00 0.00 0.00 0.01 0.03 0.04 0.04 0.02 0.01 0.01 0.01 0.01 0.01 0.01 0.01 0.01 0.00 0.00 0.00 0.00
0.00 0.00 0.00 0.00 0.00 0.00 0.00 0.00 0.00 0.00 0.00 0.00 0.00 0.00 0.00 0.00 0.00 0.00 0.00 0.00 0.00 0.00 0.00 0.00 0.02 0.00 0.00 0.00 0.00 0.00 0.00 0.00 0.00 0.01 0.00 0.01 0.01 0.02 0.04 0.04 0.05 0.03 0.01 0.01 0.01 0.01 0.00 0.01 0.01 0.01 0.00 0.00 0.00 0.01
0.00 0.00 0.00 0.00 0.00 0.00 0.00 0.00 0.00 0.00 0.00 0.00 0.00 0.00 0.00 0.00 0.00 0.00 0.00 0.00 0.00 0.00 0.00 0.00 0.00 0.01 0.00 0.00 0.00 0.00 0.00 0.00 0.01 0.01 0.01 0.00 0.03 0.03 0.01 0.02 0.02 0.04 0.02 0.02 0.00 0.01 0.01 0.01 0.01 0.01 0.00 0.00 0.00 0.01
0.00 0.00 0.00 0.00 0.00 0.00 0.00 0.00 0.00 0.00 0.00 0.00 0.00 0.00 0.00 0.00 0.00 0.00 0.00 0.00 0.00 0.00 0.00 0.00 0.00 0.02 0.00 0.00 0.00 0.00 0.00 0.01 0.02 0.03 0.02 0.01 0.00 0.00 0.01 0.01 0.01 0.02 0.04 0.03 0.01 0.00 0.00 0.00 0.01 0.00 0.00 0.00 0.00 0.01
0.00 0.00 0.00 0.00 0.00 0.00 0.00 0.00 0.00 0.00 0.00 0.00 0.00 0.00 0.00 0.00 0.00 0.00 0.00 0.00 0.00 0.00 0.00 0.00 0.00 0.00 0.02 0.03 0.02 0.00 0.00 0.01 0.04 0.01 0.01 0.03 0.02 0.01 0.00 0.00 0.00 0.00 0.02 0.03 0.02 0.01 0.00 0.00 0.00 0.00 0.00 0.01 0.01 0.01
0.00 0.00 0.00 0.00 0.00 0.00 0.00 0.00 0.00 0.00 0.00 0.00 0.00 0.00 0.00 0.00 0.00 0.00 0.00 0.00 0.00 0.00 0.00 0.00 0.00 0.00 0.00 0.08 0.11 0.02 0.01 0.02 0.04 0.02 0.01 0.04 0.04 0.00 0.00 0.00 0.00 0.00 0.00 0.00 0.01 0.00 0.00 0.00 0.00 0.00 0.00 0.00 0.01 0.01
0.00 0.00 0.00 0.00 0.00 0.00 0.00 0.00 0.00 0.00 0.00 0.00 0.00 0.00 0.00 0.00 0.00 0.00 0.01 0.01 0.01 0.01 0.01 0.01 0.00 0.00 0.00 0.01 0.08 0.07 0.03 0.05 0.03 0.01 0.01 0.01 0.05 0.00 0.00 0.00 0.00 0.00 0.00 0.00 0.00 0.00 0.00 0.00 0.00 0.00 0.01 0.00 0.00 0.00
0.00 0.00 0.00 0.00 0.00 0.00 0.00 0.00 0.00 0.00 0.00 0.00 0.00 0.00 0.00 0.00 0.00 0.00 0.00 0.00 0.01 0.00 0.00 0.00 0.00 0.02 0.03 0.03 0.09 0.12 0.07 0.06 0.02 0.05 0.01 0.04 0.03 0.00 0.00 0.00 0.00 0.00 0.00 0.00 0.00 0.00 0.00 0.00 0.01 0.00 0.00 0.01 0.00 0.00
0.00 0.00 0.00 0.00 0.00 0.00 0.00 0.00 0.00 0.00 0.00 0.00 0.01 0.01 0.01 0.02 0.01 0.01 0.01 0.01 0.00 0.00 0.00 0.00 0.00 0.06 0.06 0.06 0.08 0.09 0.04 0.02 0.03 0.02 0.03 0.03 0.02 0.00 0.00 0.00 0.00 0.00 0.00 0.00 0.00 0.00 0.00 0.00 0.00 0.00 0.00 0.00 0.01 0.01
0.00 0.00 0.00 0.00 0.00 0.00 0.00 0.00 0.00 0.00 0.00 0.00 0.02 0.02 0.00 0.00 0.00 0.01 0.01 0.02 0.01 0.00 0.00 0.00 0.04 0.07 0.02 0.01 0.01 0.01 0.00 0.01 0.02 0.03 0.02 0.01 0.00 0.00 0.00 0.00 0.00 0.00 0.00 0.00 0.00 0.00 0.00 0.00 0.00 0.00 0.00 0.00 0.00 0.01
0.00 0.00 0.00 0.00 0.00 0.00 0.00 0.00 0.00 0.00 0.00 0.00 0.01 0.00 0.00 0.02 0.01 0.01 0.01 0.01 0.00 0.00 0.00 0.00 0.00 0.00 0.00 0.00 0.00 0.00 0.02 0.04 0.03 0.00 0.00 0.00 0.01 0.00 0.00 0.00 0.00 0.00 0.00 0.00 0.00 0.00 0.00 0.00 0.00 0.00 0.00 0.00 0.00 0.00
0.00 0.00 0.00 0.00 0.00 0.00 0.00 0.00 0.00 0.00 0.00 0.01 0.00 0.00 0.00 0.02 0.02 0.01 0.00 0.00 0.00 0.00 0.00 0.00 0.00 0.00 0.01 0.01 0.02 0.02 0.08 0.04 0.00 0.00 0.00 0.00 0.01 0.00 0.00 0.00 0.00 0.00 0.00 0.00 0.00 0.00 0.00 0.00 0.00 0.00 0.00 0.00 0.00 0.00
0.00 0.00 0.00 0.00 0.00 0.00 0.00 0.00 0.00 0.00 0.02 0.00 0.01 0.00 0.00 0.00 0.00 0.00 0.00 0.00 0.00 0.00 0.00 0.00 0.01 0.02 0.02 0.05 0.09 0.06 0.00 0.00 0.00 0.00 0.00 0.00 0.00 0.00 0.00 0.00 0.00 0.00 0.00 0.00 0.00 0.00 0.00 0.00 0.00 0.00 0.00 0.00 0.00 0.00
0.00 0.00 0.00 0.00 0.00 0.00 0.00 0.00 0.00 0.01 0.00 0.01 0.00 0.00 0.00 0.02 0.00 0.00 0.00 0.00 0.00 0.00 0.00 0.01 0.04 0.07 0.07 0.09 0.04 0.01 0.00 0.00 0.00 0.00 0.00 0.00 0.00 0.00 0.00 0.00 0.00 0.00 0.00 0.00 0.00 0.00 0.00 0.00 0.00 0.00 0.00 0.00 0.00 0.00
0.00 0.00 0.00 0.00 0.00 0.00 0.00 0.00 0.00 0.03 0.02 0.00 0.00 0.02 0.05 0.04 0.00 0.00 0.00 0.00 0.00 0.03 0.03 0.03 0.05 0.04 0.03 0.02 0.00 0.00 0.00 0.00 0.00 0.00 0.00 0.00 0.00 0.00 0.00 0.00 0.00 0.00 0.00 0.00 0.00 0.00 0.00 0.00 0.00 0.00 0.00 0.00 0.00 0.00
0.00 0.00 0.00 0.00 0.00 0.00 0.00 0.00 0.01 0.01 0.00 0.01 0.03 0.07 0.06 0.02 0.01 0.02 0.02 0.00 0.02 0.02 0.01 0.01 0.01 0.00 0.00 0.00 0.00 0.00 0.00 0.00 0.00 0.00 0.00 0.00 0.00 0.00 0.00 0.00 0.00 0.00 0.00 0.00 0.00 0.00 0.00 0.00 0.00 0.00 0.00 0.00 0.00 0.00
0.00 0.00 0.00 0.00 0.00 0.00 0.01 0.00 0.01 0.01 0.01 0.02 0.02 0.02 0.03 0.03 0.03 0.01 0.00 0.01 0.01 0.00 0.00 0.00 0.00 0.00 0.00 0.00 0.00 0.00 0.01 0.00 0.00 0.00 0.00 0.00 0.00 0.00 0.00 0.00 0.00 0.00 0.00 0.00 0.00 0.00 0.00 0.00 0.00 0.00 0.00 0.00 0.00 0.00
0.00 0.00 0.00 0.00 0.01 0.01 0.00 0.00 0.00 0.00 0.00 0.00 0.00 0.01 0.00 0.01 0.01 0.01 0.01 0.01 0.00 0.00 0.00 0.00 0.00 0.00 0.00 0.00 0.01 0.01 0.03 0.01 0.00 0.00 0.00 0.00 0.00 0.00 0.00 0.00 0.00 0.00 0.01 0.00 0.00 0.00 0.00 0.00 0.00 0.00 0.00 0.00 0.00 0.00
0.00 0.00 0.00 0.00 0.01 0.00 0.00 0.00 0.00 0.00 0.00 0.00 0.00 0.00 0.00 0.00 0.00 0.00 0.00 0.00 0.00 0.00 0.00 0.00 0.00 0.00 0.00 0.00 0.01 0.01 0.00 0.00 0.00 0.00 0.00 0.00 0.00 0.00 0.00 0.00 0.00 0.00 0.00 0.00 0.00 0.00 0.01 0.02 0.01 0.01 0.00 0.00 0.00 0.01
0.00 0.00 0.00 0.00 0.00 0.00 0.00 0.00 0.00 0.00 0.00 0.00 0.00 0.00 0.00 0.00 0.01 0.00 0.00 0.00 0.00 0.00 0.00 0.00 0.00 0.00 0.00 0.00 0.00 0.00 0.00 0.00 0.00 0.00 0.00 0.00 0.00 0.00 0.00 0.00 0.00 0.00 0.00 0.00 0.00 0.00 0.02 0.05 0.04 0.02 0.00 0.00 0.00 0.00
0.00 0.00 0.00 0.00 0.00 0.00 0.00 0.00 0.00 0.00 0.00 0.00 0.00 0.00 0.00 0.00 0.00 0.00 0.00 0.00 0.00 0.00 0.00 0.00 0.00 0.00 0.00 0.00 0.00 0.00 0.00 0.00 0.00 0.00 0.00 0.00 0.00 0.00 0.00 0.00 0.00 0.00 0.00 0.00 0.00 0.01 0.09 0.09 0.05 0.03 0.00 0.00 0.00 0.00
0.00 0.00 0.00 0.00 0.00 0.00 0.00 0.00 0.00 0.00 0.00 0.00 0.00 0.00 0.00 0.00 0.00 0.00 0.00 0.00 0.00 0.00 0.00 0.00 0.00 0.00 0.00 0.00 0.00 0.00 0.00 0.00 0.00 0.00 0.00 0.00 0.00 0.00 0.00 0.00 0.00 0.00 0.00 0.00 0.00 0.00 0.02 0.01 0.01 0.00 0.00 0.00 0.00 0.00
0.00 0.00 0.00 0.00 0.00 0.00 0.00 0.00 0.00 0.00 0.00 0.00 0.00 0.00 0.00 0.00 0.00 0.00 0.00 0.00 0.00 0.00 0.00 0.00 0.00 0.00 0.00 0.00 0.00 0.00 0.00 0.00 0.00 0.00 0.00 0.00 0.00 0.00 0.00 0.00 0.00 0.00 0.00 0.00 0.00 0.00 0.00 0.00 0.00 0.00 0.00 0.00 0.00 0.00
0.00 0.00 0.00 0.00 0.00 0.00 0.00 0.00 0.00 0.00 0.00 0.00 0.00 0.00 0.00 0.00 0.00 0.00 0.00 0.00 0.00 0.00 0.00 0.00 0.00 0.00 0.00 0.00 0.00 0.00 0.00 0.00 0.00 0.00 0.00 0.00 0.00 0.00 0.00 0.00 0.00 0.00 0.00 0.00 0.00 0.00 0.00 0.00 0.00 0.00 0.00 0.00 0.00 0.00
0.00 0.00 0.00 0.00 0.00 0.00 0.00 0.00 0.00 0.00 0.00 0.00 0.00 0.00 0.00 0.00 0.00 0.00 0.00 0.00 0.00 0.00 0.00 0.00 0.00 0.00 0.00 0.00 0.00 0.00 0.00 0.00 0.00 0.00 0.00 0.00 0.00 0.00 0.00 0.00 0.00 0.00 0.00 0.00 0.00 0.00 0.00 0.00 0.00 0.00 0.00 0.00 0.00 0.00
0.00 0.00 0.00 0.00 0.00 0.00 0.00 0.00 0.00 0.00 0.00 0.00 0.00 0.00 0.00 0.00 0.00 0.00 0.00 0.00 0.00 0.00 0.00 0.00 0.00 0.00 0.00 0.00 0.00 0.00 0.00 0.00 0.00 0.00 0.00 0.00 0.00 0.00 0.00 0.00 0.00 0.00 0.00 0.00 0.00 0.00 0.00 0.00 0.00 0.00 0.00 0.00 0.00 0.00
0.00 0.00 0.00 0.00 0.00 0.00 0.00 0.00 0.00 0.00 0.00 0.00 0.00 0.00 0.00 0.00 0.00 0.00 0.00 0.00 0.00 0.00 0.00 0.00 0.00 0.00 0.00 0.00 0.00 0.00 0.00 0.00 0.00 0.00 0.00 0.00 0.00 0.00 0.00 0.00 0.00 0.00 0.00 0.00 0.00 0.00 0.00 0.00 0.00 0.00 0.00 0.00 0.00 0.00
0.00 0.00 0.00 0.00 0.00 0.00 0.00 0.00 0.00 0.00 0.00 0.00 0.00 0.00 0.00 0.00 0.00 0.00 0.00 0.00 0.00 0.00 0.00 0.00 0.00 0.00 0.00 0.00 0.00 0.00 0.00 0.00 0.00 0.00 0.00 0.00 0.00 0.00 0.00 0.00 0.00 0.00 0.00 0.00 0.00 0.00 0.00 0.00 0.00 0.00 0.00 0.00 0.00 0.00
MSLP
1025.19 1024.97 1024.64 1024.25 1023.88 1023.68 1023.21 1022.87 1022.55 1022.34 1021.95 1021.68 1021.37 1021.22 1021.21 1021.11 1020.96 1020.26 1019.70 1019.74 1018.74 1016.74 1017.21 1017.44 1018.14 1018.24 1018.50 1017.90 1016.74 1016.32 1016.02 1015.94 1016.11 1016.10 1016.42 1016.80 1017.34 1017.80 1018.21 1018.05 1017.29 1016.53 1015.65 1014.91 1014.35 1013.14 1011.34 1011.34 1011.32 1011.52 1011.76 1011.92 1012.31 1012.35
1024.95 1024.67 1024.35 1023.97 1023.71 1023.45 1023.10 1022.78 1022.47 1022.26 1022.03 1021.70 1021.62 1021.41 1021.39 1021.34 1021.26 1021.09 1019.05 1019.66 1019.52 1018.14 1017.06 1017.64 1017.60 1017.74 1017.71 1017.79 1017.60 1017.03 1017.12 1017.48 1017.56 1017.42 1017.53 1017.98 1018.39 1018.48 1018.70 1018.62 1018.82 1018.31 1018.75 1017.84 1015.49 1013.08 1011.94 1012.53 1012.73 1013.14 1013.02 1013.22 1013.52 1013.31
1024.68 1024.44 1024.08 1023.67 1023.42 1023.24 1023.03 1022.74 1022.46 1022.14 1021.95 1021.72 1021.51 1021.44 1021.41 1021.47 1021.44 1021.41 1019.36 1019.50 1019.27 1017.62 1016.81 1016.54 1016.34 1017.22 1017.24 1017.53 1017.92 1017.79 1017.54 1018.04 1018.03 1018.36 1017.64 1018.20 1018.76 1018.88 1018.93 1019.16 1019.46 1019.48 1019.70 1019.01 1017.37 1014.16 1013.31 1013.68 1013.50 1014.05 1014.18 1014.25 1014.42 1014.06
1024.28 1024.16 1023.88 1023.40 1023.14 1022.99 1022.84 1022.55 1022.31 1022.06 1022.00 1021.73 1021.52 1021.48 1021.50 1021.52 1021.49 1021.42 1019.26 1018.76 1018.76 1017.38 1016.00 1015.91 1016.62 1016.83 1017.21 1017.34 1017.68 1017.82 1017.90 1018.06 1018.06 1018.13 1017.87 1018.61 1019.06 1019.37 1019.35 1019.80 1020.44 1020.91 1020.71 1019.75 1018.31 1016.76 1016.14 1015.06 1015.61 1015.57 1015.28 1014.87 1014.22 1013.64
1023.82 1023.80 1023.56 1023.23 1022.89 1022.70 1022.59 1022.35 1022.10 1021.89 1021.72 1021.64 1021.40 1021.39 1021.46 1021.58 1021.66 1021.20 1019.31 1018.66 1018.78 1018.64 1016.32 1015.43 1015.64 1016.41 1016.92 1017.16 1017.41 1017.51 1017.37 1017.45 1017.22 1017.63 1017.14 1017.69 1018.50 1019.15 1019.41 1019.94 1020.25 1020.87 1020.90 1020.48 1019.52 1018.95 1018.36 1017.19 1016.50 1016.08 1015.50 1014.96 1014.38 1013.35
1023.36 1023.39 1023.23 1022.94 1022.63 1022.38 1022.27 1022.14 1021.86 1021.74 1021.62 1021.44 1021.28 1021.23 1021.51 1021.62 1021.70 1020.80 1019.24 1018.55 1018.76 1018.78 1017.72 1015.12 1015.38 1016.08 1016.87 1017.16 1017.43 1017.73 1017.49 1017.37 1017.41 1017.19 1016.50 1017.82 1018.66 1019.40 1018.92 1018.93 1019.77 1020.23 1020.52 1020.24 1019.61 1019.03 1018.25 1017.64 1016.94 1016.24 1015.76 1014.98 1014.08 1013.38
1022.97 1022.99 1022.84 1022.64 1022.31 1021.96 1021.86 1021.80 1021.62 1021.45 1021.41 1021.36 1021.24 1021.16 1021.42 1021.63 1021.06 1020.95 1020.68 1020.22 1020.34 1019.40 1018.28 1015.38 1015.02 1015.68 1016.68 1017.47 1018.42 1018.98 1018.72 1017.61 1017.52 1017.12 1016.91 1016.79 1017.67 1018.65 1018.19 1018.02 1018.01 1019.10 1019.40 1019.16 1018.78 1018.28 1017.95 1017.66 1017.10 1016.54 1015.94 1014.79 1013.68 1012.82
1022.53 1022.56 1022.43 1022.29 1021.92 1021.58 1021.48 1021.45 1021.30 1021.21 1021.24 1021.39 1021.40 1021.20 1021.35 1021.65 1021.51 1020.58 1019.78 1020.68 1020.43 1019.36 1018.32 1016.95 1014.63 1014.94 1016.44 1017.33 1018.59 1019.82 1019.66 1019.33 1017.65 1016.83 1016.25 1015.94 1017.04 1017.49 1017.72 1017.27 1016.94 1017.57 1018.03 1018.01 1017.92 1017.64 1017.84 1017.90 1017.28 1016.82 1016.10 1014.97 1013.67 1012.74
1022.18 1022.17 1021.98 1021.88 1021.52 1021.21 1021.16 1021.16 1021.06 1021.08 1021.09 1021.11 1021.38 1021.15 1020.74 1021.13 1020.30 1019.78 1020.60 1020.59 1019.99 1019.76 1018.25 1017.14 1015.11 1013.92 1015.40 1017.04 1018.56 1019.56 1019.56 1019.02 1017.78 1016.20 1015.76 1015.50 1016.67 1017.18 1016.77 1016.49 1016.35 1016.36 1016.81 1016.64 1016.43 1016.64 1016.56 1017.10 1017.24 1016.89 1016.37 1015.47 1014.48 1013.55
1021.91 1021.78 1021.59 1021.46 1021.13 1020.87 1020.88 1020.86 1020.78 1020.89 1020.85 1021.20 1021.18 1020.66 1019.81 1019.56 1020.38 1020.58 1020.43 1019.56 1019.21 1018.50 1018.02 1016.72 1014.49 1013.16 1013.72 1015.73 1017.28 1018.37 1018.90 1017.77 1016.48 1015.86 1014.66 1015.38 1016.06 1015.65 1015.82 1015.58 1015.79 1015.75 1015.75 1016.06 1016.00 1015.78 1015.94 1016.30 1016.78 1016.85 1016.68 1016.16 1015.46 1014.76
1021.59 1021.31 1021.17 1021.00 1020.64 1020.50 1020.58 1020.48 1020.56 1020.81 1020.90 1020.26 1018.73 1018.50 1019.60 1020.34 1020.10 1019.45 1018.37 1017.66 1017.15 1016.89 1016.20 1015.11 1013.29 1012.47 1012.10 1013.90 1015.28 1016.19 1017.03 1016.70 1015.53 1014.72 1014.50 1015.00 1015.16 1014.92 1015.05 1015.22 1015.20 1015.23 1015.41 1015.46 1015.57 1015.67 1015.52 1015.62 1015.80 1016.43 1016.54 1016.51 1016.15 1015.59
1021.08 1020.81 1020.72 1020.39 1020.08 1020.00 1019.98 1020.07 1020.30 1020.20 1018.00 1018.63 1018.46 1017.95 1019.00 1019.23 1018.63 1017.52 1015.17 1013.65 1014.28 1013.64 1014.56 1013.73 1012.94 1012.97 1012.62 1013.63 1014.58 1015.53 1015.80 1015.72 1014.84 1013.91 1014.36 1014.87 1014.94 1014.68 1014.87 1014.90 1014.60 1014.70 1014.86 1014.69 1015.12 1015.12 1015.46 1015.49 1015.43 1015.53 1016.26 1016.53 1016.55 1016.18
1020.56 1020.38 1020.26 1019.86 1019.31 1019.32 1019.47 1019.70 1019.84 1019.59 1019.11 1017.74 1017.85 1017.73 1017.88 1016.40 1016.03 1014.34 1013.36 1012.87 1013.86 1014.13 1015.16 1015.59 1014.54 1013.03 1013.59 1014.28 1014.65 1015.04 1015.10 1014.85 1013.64 1014.04 1014.59 1014.48 1014.48 1014.52 1014.71 1014.65 1014.40 1014.36 1014.62 1014.40 1014.43 1014.88 1014.96 1015.10 1015.55 1015.48 1015.54 1015.88 1016.24 1016.30
1020.09 1019.93 1019.72 1019.63 1019.54 1019.40 1019.35 1019.52 1019.83 1019.96 1019.10 1016.52 1015.87 1016.06 1015.09 1013.62 1013.47 1014.08 1013.94 1012.00 1012.79 1014.28 1014.68 1015.05 1014.55 1013.92 1014.68 1014.53 1014.44 1014.26 1013.56 1012.57 1013.02 1013.76 1013.69 1014.44 1014.42 1014.36 1014.58 1014.29 1014.05 1014.16 1014.24 1013.95 1014.04 1014.16 1014.64 1014.81 1015.13 1015.30 1015.39 1015.49 1015.68 1015.85
1019.75 1019.34 1019.06 1019.25 1019.30 1019.16 1019.11 1019.34 1019.68 1019.14 1017.34 1015.31 1014.30 1013.78 1012.33 1012.34 1012.84 1012.49 1011.90 1012.64 1013.55 1013.76 1014.28 1014.02 1014.32 1015.43 1014.78 1014.63 1013.34 1013.02 1012.38 1012.79 1013.22 1013.40 1013.34 1014.05 1014.26 1014.73 1014.70 1014.28 1014.06 1014.08 1014.36 1014.10 1014.04 1014.14 1014.22 1014.34 1014.60 1014.97 1015.17 1015.29 1015.46 1015.43
1019.33 1018.90 1018.62 1018.96 1018.98 1018.77 1018.84 1019.33 1019.48 1017.85 1016.00 1014.58 1013.44 1012.14 1011.46 1011.51 1011.51 1011.82 1011.19 1011.80 1012.88 1012.89 1013.25 1013.11 1013.90 1014.14 1013.84 1013.56 1013.24 1012.48 1012.70 1013.14 1013.96 1013.78 1013.53 1014.21 1014.62 1014.82 1014.76 1014.57 1014.46 1014.31 1014.37 1014.25 1014.38 1014.25 1014.11 1014.13 1014.18 1014.42 1014.84 1014.89 1014.63 1014.84
1018.79 1017.50 1018.80 1018.94 1018.84 1018.91 1018.78 1018.18 1017.05 1016.02 1014.32 1013.06 1011.94 1012.30 1012.57 1011.26 1011.73 1012.32 1011.72 1012.04 1012.63 1012.54 1012.55 1013.40 1013.69 1013.79 1013.90 1013.18 1012.99 1012.88 1013.44 1013.55 1013.50 1013.78 1013.96 1014.57 1014.80 1014.93 1014.84 1014.62 1014.68 1014.42 1015.05 1014.40 1014.45 1014.44 1014.26 1014.07 1013.93 1013.81 1014.03 1014.49 1014.70 1014.64
1017.58 1017.75 1018.59 1018.65 1018.78 1019.02 1017.91 1017.44 1015.18 1013.87 1012.87 1012.39 1012.55 1011.54 1011.31 1011.84 1011.69 1011.88 1012.32 1012.50 1012.35 1012.29 1013.02 1013.78 1013.99 1014.44 1014.48 1013.63 1013.72 1013.86 1013.40 1013.67 1013.65 1013.59 1013.87 1014.38 1014.82 1014.94 1014.86 1014.63 1014.66 1014.62 1014.74 1014.97 1015.09 1014.32 1014.60 1014.00 1013.68 1013.39 1013.62 1013.94 1013.91 1014.37
1017.72 1018.10 1018.58 1018.53 1018.35 1017.80 1015.38 1014.93 1014.39 1012.67 1011.57 1011.51 1011.07 1011.54 1011.85 1012.27 1012.40 1012.58 1012.83 1013.22 1013.38 1013.44 1013.44 1013.78 1014.13 1014.28 1014.29 1014.34 1013.50 1013.11 1013.25 1013.16 1013.05 1013.39 1014.25 1014.67 1014.82 1014.82 1014.81 1014.61 1014.86 1015.17 1014.59 1014.77 1014.39 1013.94 1014.00 1014.26 1014.19 1013.82 1013.76 1013.97 1014.48 1014.00
1017.84 1017.72 1017.74 1017.98 1018.58 1016.15 1014.25 1012.89 1013.19 1012.30 1011.46 1011.29 1011.69 1011.79 1012.57 1012.39 1012.69 1012.56 1012.43 1012.49 1012.61 1013.13 1013.14 1013.20 1013.48 1013.65 1014.26 1013.85 1013.66 1013.42 1013.49 1013.44 1013.32 1013.20 1013.57 1014.40 1014.13 1014.38 1015.03 1014.63 1014.48 1014.55 1014.76 1015.38 1015.45 1015.18 1014.39 1014.32 1014.06 1014.02 1014.31 1014.46 1014.46 1014.41
1017.33 1017.05 1017.35 1017.54 1017.24 1015.61 1013.68 1011.94 1011.45 1010.94 1011.03 1011.28 1011.86 1012.43 1012.66 1012.42 1012.30 1012.66 1012.32 1012.58 1012.29 1012.32 1012.64 1013.42 1013.46 1013.95 1014.56 1014.44 1014.04 1013.94 1013.93 1014.09 1013.94 1013.82 1013.93 1013.77 1014.07 1014.17 1014.56 1014.82 1014.62 1015.37 1015.97 1014.65 1014.82 1015.12 1014.74 1014.45 1014.41 1014.81 1014.94 1015.10 1015.10 1015.70
1016.18 1016.73 1015.95 1016.31 1014.84 1013.58 1012.95 1011.61 1011.36 1011.42 1011.38 1011.04 1011.23 1011.48 1011.98 1012.33 1012.44 1012.20 1012.18 1012.25 1012.43 1012.83 1013.54 1013.40 1014.01 1013.87 1014.01 1014.27 1014.28 1014.39 1014.68 1014.56 1014.56 1014.34 1014.83 1014.50 1014.46 1014.56 1015.06 1015.10 1015.32 1015.48 1015.88 1016.37 1015.98 1015.15 1015.25 1015.10 1014.88 1015.69 1016.08 1015.56 1015.97 1015.47
1016.34 1016.19 1014.93 1014.14 1013.52 1012.82 1012.25 1011.56 1011.08 1010.79 1010.59 1010.66 1010.54 1011.16 1011.36 1011.89 1012.36 1012.43 1012.19 1012.37 1012.70 1013.44 1013.64 1013.96 1014.22 1014.37 1014.14 1013.85 1014.00 1014.36 1014.54 1014.41 1014.67 1014.28 1014.05 1014.33 1014.94 1015.67 1015.85 1015.97 1016.18 1016.03 1016.02 1016.83 1016.33 1016.00 1016.05 1016.29 1015.89 1015.76 1015.79 1016.05 1016.50 1016.50
1016.12 1014.88 1013.57 1012.66 1012.42 1011.77 1011.06 1010.51 1010.42 1010.51 1010.62 1010.37 1010.55 1010.79 1011.29 1011.73 1012.03 1011.64 1011.53 1011.81 1012.64 1012.94 1013.14 1013.65 1013.34 1013.06 1013.11 1013.47 1013.06 1013.34 1013.95 1013.88 1013.39 1013.64 1014.14 1014.33 1015.48 1015.87 1015.92 1016.10 1016.14 1016.20 1016.32 1016.12 1016.24 1016.53 1016.33 1016.16 1016.99 1016.41 1016.42 1016.57 1016.19 1016.12
1015.44 1014.53 1013.63 1012.62 1011.54 1010.91 1010.10 1009.77 1009.88 1009.79 1009.99 1010.42 1010.37 1010.61 1011.04 1011.50 1011.29 1011.26 1011.14 1011.55 1012.08 1012.28 1012.63 1012.78 1012.66 1012.52 1012.40 1012.86 1012.98 1013.49 1014.42 1014.05 1013.75 1013.72 1014.56 1014.66 1015.17 1015.31 1015.62 1015.98 1016.27 1016.35 1016.37 1016.58 1016.44 1016.63 1016.84 1016.90 1017.05 1016.80 1016.43 1016.32 1016.57 1016.61
1014.48 1012.89 1012.50 1010.66 1010.03 1009.71 1009.26 1009.25 1009.28 1009.38 1009.50 1009.88 1010.16 1010.82 1011.02 1010.80 1010.76 1010.92 1011.20 1011.88 1012.04 1012.33 1012.64 1012.75 1012.76 1012.61 1012.64 1013.60 1013.67 1013.87 1014.33 1014.34 1014.48 1014.58 1015.14 1015.06 1015.28 1015.33 1015.64 1015.90 1016.32 1016.75 1016.97 1017.14 1016.99 1017.27 1017.28 1017.25 1017.19 1017.47 1016.84 1017.16 1017.64 1017.66
1012.77 1011.03 1010.69 1010.25 1009.68 1009.60 1009.36 1009.32 1009.28 1009.06 1009.03 1009.13 1009.31 1010.08 1010.37 1010.26 1010.32 1010.88 1011.38 1012.04 1012.14 1012.70 1013.23 1013.27 1013.23 1013.20 1013.36 1013.82 1014.45 1014.92 1015.06 1015.14 1015.27 1015.55 1015.90 1016.17 1016.40 1016.62 1016.47 1016.39 1016.95 1017.66 1017.54 1017.53 1017.49 1017.46 1017.53 1017.56 1017.22 1017.38 1017.49 1017.54 1017.35 1017.62
1011.12 1010.35 1009.67 1009.52 1009.36 1009.14 1008.98 1008.87 1008.58 1008.29 1008.15 1008.78 1009.36 1009.40 1009.46 1009.65 1010.07 1010.66 1011.20 1012.14 1012.62 1013.08 1013.32 1013.60 1013.81 1013.88 1014.08 1014.46 1014.70 1015.06 1015.61 1016.02 1016.31 1016.35 1016.50 1016.72 1017.01 1017.12 1017.28 1017.72 1018.19 1018.73 1018.35 1018.42 1018.46 1018.03 1018.14 1018.01 1017.89 1017.81 1017.83 1017.97 1017.60 1017.87
1010.39 1009.64 1009.26 1008.88 1008.86 1008.75 1008.78 1008.33 1007.90 1007.47 1007.91 1008.25 1008.48 1008.52 1009.00 1009.67 1010.40 1011.03 1011.80 1012.24 1012.67 1012.93 1013.11 1013.54 1014.17 1014.43 1014.73 1015.09 1015.30 1015.34 1015.34 1015.43 1015.79 1016.01 1015.98 1015.99 1016.53 1017.18 1017.29 1017.27 1017.78 1017.97 1018.33 1018.59 1019.18 1019.01 1019.05 1018.78 1018.47 1018.25 1018.10 1018.22 1018.25 1018.24
1009.16 1008.84 1008.62 1008.01 1008.05 1007.78 1007.57 1007.46 1007.40 1007.80 1008.20 1008.37 1008.73 1009.28 1009.61 1010.21 1010.78 1011.32 1011.81 1012.23 1012.30 1012.34 1012.66 1013.17 1013.63 1013.80 1013.95 1014.27 1014.99 1015.50 1015.58 1015.54 1015.56 1015.56 1015.78 1016.30 1016.96 1017.27 1017.35 1017.35 1017.40 1017.64 1018.03 1018.54 1018.57 1018.94 1019.34 1019.27 1019.14 1018.84 1018.57 1018.30 1018.14 1018.16
1008.05 1008.21 1007.88 1007.55 1007.44 1007.19 1007.34 1007.74 1008.09 1008.29 1008.45 1008.55 1008.73 1008.81 1008.56 1009.54 1010.91 1011.69 1011.72 1011.88 1011.99 1012.39 1012.79 1013.18 1013.41 1013.85 1014.14 1014.45 1014.94 1015.46 1016.00 1016.60 1017.09 1017.21 1017.18 1017.42 1017.64 1017.88 1017.98 1017.95 1017.73 1017.72 1018.04 1018.49 1018.35 1018.41 1018.82 1018.70 1018.38 1018.33 1018.37 1018.64 1018.69 1018.64
1007.61 1007.35 1007.18 1006.76 1006.40 1007.05 1007.74 1007.80 1007.64 1007.82 1007.72 1008.29 1008.42 1008.66 1009.13 1009.66 1009.95 1010.74 1011.38 1011.76 1011.88 1012.26 1012.97 1013.03 1013.40 1014.02 1014.66 1014.95 1015.39 1016.08 1016.55 1017.24 1018.04 1018.42 1018.63 1018.31 1018.57 1018.67 1018.52 1018.34 1018.34 1018.29 1018.25 1018.22 1018.12 1018.12 1018.42 1018.40 1018.46 1018.65 1018.69 1019.01 1019.11 1019.13
1006.74 1006.56 1006.49 1006.14 1006.15 1006.79 1007.14 1007.51 1007.47 1007.37 1007.47 1007.57 1007.81 1007.94 1008.43 1008.96 1009.36 1010.23 1011.31 1011.66 1011.76 1011.84 1012.65 1013.00 1013.78 1014.68 1015.37 1015.57 1016.07 1016.85 1017.32 1018.30 1019.59 1019.96 1019.92 1020.10 1020.21 1019.89 1019.19 1018.66 1018.95 1018.93 1018.89 1018.64 1018.50 1018.51 1018.55 1018.74 1018.84 1019.10 1019.30 1019.34 1019.39 1019.26
Thickness
5600 5596 5593 5590 5588 5584 5584 5582 5581 5578 5576 5573 5571 5569 5565 5562 5559 5559 5559 5553 5557 5567 5556 5550 5540 5533 5526 5530 5534 5536 5531 5527 5518 5512 5508 5504 5496 5491 5476 5474 5486 5492 5498 5502 5504 5504 5515 5532 5542 5535 5538 5549 5551 5562
5598 5596 5593 5590 5587 5584 5582 5581 5580 5578 5574 5572 5568 5566 5563 5560 5556 5553 5565 5553 5550 5555 5558 5550 5547 5542 5537 5531 5526 5528 5520 5509 5506 5500 5498 5490 5484 5486 5481 5481 5473 5484 5461 5472 5495 5513 5528 5519 5516 5518 5523 5528 5533 5546
5596 5594 5591 5590 5587 5584 5580 5579 5578 5577 5574 5571 5568 5564 5562 5558 5554 5550 5562 5554 5551 5558 5560 5558 5553 5545 5542 5535 5527 5516 5517 5508 5503 5498 5502 5490 5474 5481 5479 5476 5469 5468 5453 5454 5469 5507 5509 5498 5505 5500 5502 5510 5519 5532
5593 5591 5589 5589 5586 5583 5580 5579 5577 5575 5571 5570 5568 5563 5560 5556 5553 5549 5560 5559 5555 5561 5561 5558 5555 5547 5543 5537 5528 5522 5515 5509 5505 5500 5496 5479 5471 5475 5472 5467 5451 5445 5440 5446 5456 5474 5468 5484 5475 5476 5484 5499 5515 5528
5592 5589 5587 5586 5584 5582 5580 5578 5577 5575 5573 5570 5569 5564 5559 5555 5550 5549 5558 5558 5553 5549 5561 5561 5562 5551 5543 5536 5529 5525 5521 5513 5510 5499 5502 5491 5484 5474 5470 5458 5448 5435 5430 5437 5443 5437 5438 5451 5462 5468 5479 5492 5507 5524
5590 5587 5585 5584 5583 5582 5580 5578 5577 5575 5572 5571 5569 5565 5558 5553 5549 5550 5558 5559 5552 5548 5548 5559 5562 5549 5540 5535 5528 5521 5520 5515 5508 5504 5509 5493 5481 5469 5471 5466 5451 5443 5435 5433 5435 5440 5442 5447 5456 5467 5473 5486 5502 5516
5588 5585 5583 5582 5581 5582 5580 5579 5577 5576 5573 5570 5567 5564 5557 5551 5549 5549 5548 5546 5539 5541 5542 5562 5553 5552 5540 5529 5515 5505 5507 5514 5507 5504 5501 5500 5488 5478 5477 5472 5474 5451 5445 5445 5446 5446 5441 5443 5452 5461 5470 5487 5504 5517
5586 5583 5582 5580 5580 5581 5580 5579 5577 5576 5572 5567 5564 5562 5556 5549 5545 5550 5548 5538 5535 5538 5542 5539 5560 5554 5540 5525 5512 5492 5491 5488 5505 5505 5508 5506 5491 5484 5468 5480 5482 5468 5457 5454 5451 5452 5441 5441 5449 5455 5467 5483 5501 5514
5584 5581 5581 5579 5579 5581 5579 5577 5576 5574 5571 5567 5561 5559 5557 5551 5554 5554 5540 5536 5534 5534 5534 5535 5547 5555 5546 5523 5505 5492 5488 5491 5501 5507 5505 5507 5487 5465 5481 5483 5481 5477 5467 5467 5467 5463 5461 5447 5445 5451 5459 5474 5488 5503
5581 5579 5579 5578 5579 5580 5577 5576 5575 5572 5570 5563 5560 5563 5565 5561 5548 5542 5541 5541 5537 5537 5534 5532 5558 5556 5554 5529 5511 5503 5489 5498 5502 5505 5518 5499 5486 5496 5490 5488 5482 5480 5476 5469 5466 5466 5465 5457 5445 5446 5452 5463 5476 5486
5578 5579 5578 5578 5580 5580 5577 5575 5573 5570 5567 5571 5580 5577 5560 5549 5547 5547 5550 5552 5550 5542 5545 5546 5562 5559 5565 5537 5523 5518 5504 5503 5506 5513 5510 5499 5492 5497 5493 5487 5484 5480 5475 5471 5469 5465 5464 5464 5461 5449 5453 5456 5462 5470
5579 5579 5579 5580 5582 5581 5579 5577 5574 5572 5590 5581 5576 5575 5559 5550 5552 5558 5579 5587 5572 5570 5554 5555 5557 5551 5553 5542 5525 5514 5507 5506 5505 5524 5506 5485 5493 5498 5491 5486 5485 5481 5477 5475 5469 5467 5463 5462 5463 5463 5453 5452 5454 5460
5580 5580 5579 5582 5585 5583 5581 5578 5576 5575 5575 5580 5574 5565 5560 5574 5559 5579 5577 5580 5560 5558 5540 5528 5530 5549 5539 5528 5520 5514 5506 5501 5526 5508 5485 5496 5496 5494 5488 5485 5483 5481 5475 5475 5471 5466 5465 5463 5459 5459 5460 5456 5452 5454
5580 5581 5581 5581 5580 5581 5581 5578 5574 5570 5573 5586 5582 5563 5580 5587 5585 5569 5559 5583 5575 5553 5542 5531 5532 5534 5515 5517 5517 5511 5522 5534 5517 5498 5503 5495 5492 5489 5482 5482 5481 5476 5474 5474 5471 5468 5462 5461 5459 5459 5456 5456 5456 5455
5580 5583 5585 5582 5581 5581 5581 5578 5574 5572 5584 5591 5594 5577 5597 5596 5579 5587 5588 5574 5561 5553 5540 5539 5531 5512 5519 5512 5528 5528 5528 5514 5508 5501 5504 5496 5490 5479 5474 5475 5474 5471 5466 5467 5466 5465 5462 5460 5459 5457 5456 5455 5453 5456
5580 5585 5584 5582 5582 5584 5582 5577 5573 5582 5590 5594 5597 5601 5606 5599 5597 5588 5589 5575 5560 5555 5548 5545 5529 5524 5524 5525 5520 5524 5515 5504 5494 5499 5499 5488 5480 5473 5469 5467 5465 5464 5461 5461 5458 5458 5460 5458 5456 5455 5454 5455 5459 5459
5583 5595 5582 5582 5582 5582 5581 5585 5591 5591 5600 5603 5604 5599 5588 5602 5585 5570 5579 5567 5558 5552 5542 5532 5522 5520 5522 5523 5518 5518 5502 5500 5501 5494 5491 5480 5474 5468 5465 5463 5459 5459 5450 5455 5454 5452 5452 5455 5455 5455 5454 5453 5454 5457
5589 5587 5584 5583 5581 5579 5588 5591 5603 5607 5604 5606 5591 5603 5603 5591 5587 5577 5568 5560 5554 5549 5537 5521 5523 5508 5499 5510 5505 5502 5506 5500 5497 5493 5486 5477 5469 5464 5461 5459 5455 5453 5449 5445 5442 5449 5445 5449 5452 5456 5453 5451 5454 5453
5586 5584 5582 5584 5584 5591 5607 5606 5606 5608 5615 5611 5615 5605 5594 5584 5578 5571 5560 5551 5544 5539 5532 5522 5511 5507 5506 5504 5511 5512 5506 5501 5497 5490 5477 5470 5465 5460 5456 5455 5448 5441 5445 5441 5443 5447 5446 5443 5443 5447 5449 5448 5441 5449
5587 5589 5589 5587 5582 5603 5610 5617 5616 5610 5610 5613 5603 5599 5583 5579 5571 5567 5561 5555 5548 5535 5528 5524 5520 5520 5509 5512 5511 5508 5502 5498 5493 5487 5477 5465 5464 5456 5447 5446 5445 5442 5438 5428 5425 5424 5435 5436 5439 5441 5440 5439 5440 5442
5591 5591 5590 5588 5592 5604 5614 5623 5620 5623 5618 5606 5602 5589 5579 5580 5572 5561 5558 5554 5548 5542 5535 5528 5526 5520 5511 5508 5508 5504 5497 5490 5484 5480 5473 5468 5461 5454 5444 5437 5432 5423 5414 5429 5422 5420 5422 5425 5428 5426 5426 5427 5429 5425
5600 5594 5602 5598 5608 5617 5615 5627 5620 5618 5610 5610 5605 5599 5585 5573 5566 5565 5564 5551 5545 5541 5532 5531 5522 5521 5514 5506 5502 5497 5488 5484 5478 5473 5454 5454 5451 5443 5431 5424 5416 5412 5407 5400 5404 5410 5409 5410 5415 5409 5406 5416 5414 5423
5596 5597 5607 5613 5611 5610 5609 5625 5616 5617 5608 5607 5609 5593 5588 5579 5571 5569 5555 5551 5546 5540 5536 5528 5522 5517 5514 5512 5505 5496 5489 5484 5474 5472 5468 5459 5446 5431 5421 5410 5402 5399 5398 5390 5394 5397 5395 5388 5397 5401 5402 5402 5402 5406
5596 5604 5610 5616 5617 5610 5627 5622 5624 5616 5612 5608 5601 5592 5586 5580 5577 5569 5559 5556 5549 5547 5540 5531 5531 5526 5521 5512 5511 5504 5494 5489 5488 5479 5468 5458 5439 5428 5421 5411 5402 5396 5390 5391 5389 5385 5389 5392 5381 5390 5391 5391 5398 5403
5592 5597 5602 5589 5622 5621 5623 5623 5620 5618 5608 5605 5600 5594 5589 5586 5576 5568 5563 5560 5554 5550 5545 5541 5537 5533 5527 5520 5515 5506 5493 5491 5487 5480 5466 5458 5445 5437 5426 5415 5405 5398 5392 5387 5387 5386 5384 5383 5383 5385 5390 5391 5390 5393
5582 5611 5603 5627 5630 5627 5629 5621 5620 5617 5615 5606 5603 5597 5593 5587 5577 5568 5568 5562 5556 5551 5545 5540 5536 5533 5528 5516 5510 5503 5494 5491 5484 5476 5465 5459 5449 5440 5431 5421 5411 5401 5394 5388 5387 5383 5383 5383 5384 5380 5386 5381 5374 5380
5592 5620 5627 5634 5635 5632 5628 5628 5627 5623 5615 5610 5611 5599 5591 5581 5577 5577 5575 5566 5559 5551 5543 5539 5535 5530 5524 5516 5506 5497 5491 5485 5479 5471 5463 5454 5446 5436 5430 5425 5414 5401 5397 5393 5389 5387 5385 5384 5386 5383 5382 5381 5383 5382
5620 5627 5623 5630 5630 5635 5626 5625 5623 5621 5624 5622 5612 5599 5594 5590 5585 5586 5580 5569 5560 5552 5544 5537 5532 5527 5521 5513 5507 5498 5488 5480 5473 5468 5461 5455 5446 5439 5432 5422 5411 5399 5398 5393 5389 5390 5386 5385 5385 5384 5383 5381 5385 5382
5619 5630 5632 5628 5630 5630 5627 5628 5629 5638 5636 5627 5616 5613 5608 5604 5597 5587 5577 5571 5563 5554 5546 5537 5527 5522 5516 5509 5503 5498 5494 5488 5479 5472 5468 5465 5455 5444 5438 5433 5424 5417 5408 5401 5388 5388 5386 5385 5386 5387 5387 5384 5384 5384
5626 5636 5629 5635 5631 5631 5639 5644 5640 5640 5634 5630 5625 5615 5610 5602 5596 5590 5580 5571 5564 5558 5551 5543 5534 5528 5522 5516 5506 5498 5495 5491 5487 5483 5476 5467 5457 5450 5444 5439 5434 5428 5420 5411 5407 5400 5391 5390 5388 5390 5390 5391 5392 5390
5640 5636 5634 5637 5634 5642 5644 5642 5638 5634 5629 5625 5623 5616 5616 5606 5594 5586 5581 5576 5570 5561 5552 5544 5538 5530 5522 5516 5508 5500 5492 5485 5479 5475 5472 5466 5460 5453 5447 5442 5439 5435 5428 5420 5418 5413 5407 5406 5405 5403 5401 5396 5394 5392
5637 5635 5635 5637 5642 5647 5639 5633 5633 5629 5630 5621 5618 5618 5611 5602 5595 5589 5584 5577 5570 5562 5550 5547 5539 5530 5522 5516 5508 5499 5492 5484 5476 5472 5468 5468 5461 5455 5451 5447 5442 5438 5434 5431 5428 5424 5419 5417 5413 5409 5406 5400 5397 5396
5642 5645 5645 5646 5645 5636 5637 5631 5628 5627 5628 5624 5621 5621 5615 5607 5599 5595 5586 5579 5572 5566 5554 5550 5540 5528 5519 5514 5506 5496 5489 5479 5468 5463 5460 5456 5452 5451 5451 5451 5445 5441 5437 5435 5432 5429 5425 5421 5417 5411 5407 5404 5402 5401